Flag for U.S.A. Weather past 2 weeks in Winamac, Indiana, U.S.A.

Now
37 °F

Clear.


Feels Like: 34 °F
Forecast: 35 / 60 °F
Wind: 3 mph from Northeast

Location: Porter County Municipal Airport

Current Time: Oct 23, 2014 at 1:21:21 AM

Latest Report: Oct 23, 2014 at 12:56 AM


Visibility: 7 mi

Pressure: 30.30 "Hg

Humidity: 93%

Dew point: 35 °F

Location of WinamacLocation

Historic Weather in Winamac — Graph

°F

Winamac temperature yesterday

Maximum temperature yesterday: 56 °F (at 2:56 PM)
Minimum temperature yesterday: 32 °F (at 7:56 AM)
Average temperature yesterday: 42 °F

Past Weeks' High & Low Weather Summary

 TemperatureHumidityPressure
High71 °F (Oct 13, 2:56 PM)97% (Oct 13, 3:56 AM)30.39 "Hg (Oct 13, 3:56 AM)
Low32 °F (Oct 22, 7:56 AM)29% (Oct 8, 3:56 PM)29.49 "Hg (Oct 14, 1:56 PM)
Average52 °F78%29.96 "Hg
* Reported Oct 7 11:56 PM — Oct 22 11:56 PM, Winamac, Weather by CustomWeather, © 2014

Note: Actual official high and low records may vary slightly from our data, if they occured in-between our weather recording intervals... More about our weather records

Advertising

Winamac weather history for previous 24 hours

 ConditionsComfort  
Time TempWeatherWind HumidityBarometerVisibility
11:56 PM
Oct 22
37 °FClear.5 mph93%30.30 "Hg9 mi
10:56 PM37 °FClear.5 mph93%30.30 "Hg10 mi
9:56 PM37 °FClear.5 mph93%30.29 "Hg10 mi
8:56 PM42 °FClear.3 mph79%30.29 "Hg10 mi
7:56 PM44 °FClear.3 mph76%30.30 "Hg10 mi
6:56 PM47 °FClear.5 mph66%30.30 "Hg10 mi
5:56 PM52 °FSunny.5 mph55%30.30 "Hg10 mi
4:56 PM54 °FSunny.7 mph51%30.30 "Hg10 mi
3:56 PM55 °FSunny.9 mph45%30.31 "Hg10 mi
2:56 PM56 °FSunny.No wind42%30.32 "Hg10 mi
1:56 PM55 °FSunny.6 mph44%30.34 "Hg10 mi
12:56 PM52 °FSunny.8 mph55%30.37 "Hg10 mi
11:56 AM49 °FSunny.8 mph64%30.39 "Hg10 mi
10:56 AM45 °FSunny.6 mph76%30.39 "Hg10 mi
9:56 AM42 °FSunny.6 mph85%30.37 "Hg10 mi
8:56 AM36 °FSunny.3 mph89%30.36 "Hg10 mi
7:56 AM32 °FClear.3 mph96%30.35 "Hg10 mi
6:56 AM33 °FClear.3 mph96%30.34 "Hg10 mi
5:56 AM33 °FClear.3 mph96%30.33 "Hg10 mi
4:56 AM33 °FClear.3 mph96%30.31 "Hg10 mi
3:56 AM36 °FClear.No wind92%30.28 "Hg10 mi
2:56 AM34 °FClear.No wind97%30.27 "Hg10 mi
1:56 AM38 °FClear.No wind90%30.26 "Hg10 mi
Weather by CustomWeather, © 2014

See weather overviewHow to use our weather pages